Regional Weather Roundup
Issued by NWS State College, PA

Home | Current Version | Previous Version | Graphics & Text | Print | Product List | Glossary On
Versions: 1 2 3 4 5 6 7 8 9 10 11 12 13 14 15 16 17 18 19 20 21 22 23 24 25 26 27 28 29 30 31 32 33 34 35 36 37 38 39 40 41 42 43 44 45 46 47 48 49 50
000
ASUS41 KCTP 011903
RWRCTP

REGIONAL WEATHER ROUNDUP
NATIONAL WEATHER SERVICE STATE COLLEGE PA
300 PM EDT SAT AUG 01 2015

Note: "fair" indicates few or no clouds below 12,000 feet with no
significant weather and/or obstructions to visibility.

* = STATION THAT DOES NOT REPORT PRECIPITATION /E.G. RAIN...SNOW...ETC/
    THUNDER OR FOG.

PAZ002>004-007>009-013>016-020>023-029>032-012000-
WESTERN PENNSYLVANIA

CITY           SKY/WX    TMP DP  RH WIND       PRES   REMARKS
ERIE           SUNNY     78  58  49 W15G22    29.91S
MEADVILLE      MOSUNNY   78  50  37 W13G20    29.93S
FRANKLIN*      PTSUNNY   79  55  44 W8        29.94S
NEW CASTLE     MOCLDY    78  58  50 W5        29.93F
BEAVER COUNTY  MOSUNNY   82  52  34 W7G16     29.93F
BUTLER*        MOSUNNY   81  54  39 NW6       29.94S
PITTSBURGH INT MOSUNNY   82  51  34 W13       29.93F
PITTSBURGH     CLOUDY    81  47  30 W14G21    29.92F
INDIANA*       MOSUNNY   79  55  44 NW9G16    29.95F
LATROBE        PTSUNNY   81  55  41 W9G18     29.93F
WASHINGTON CO* NOT AVBL
$$

PAZ004>006-010>012-017>019-024>028-033>037-041-042-045-046-049>053-012000-
CENTRAL PENNSYLVANIA

CITY           SKY/WX    TMP DP  RH WIND       PRES   REMARKS
BRADFORD       MOSUNNY   75  50  41 NW12      29.93F
DUBOIS         MOSUNNY   80  53  39 W7        29.91F
CLEARFIELD     MOSUNNY   81  53  37 W10       29.91F
JOHNSTOWN      PTSUNNY   75  51  43 W12       29.96F
ALTOONA        MOSUNNY   80  55  42 W12       29.93F
STATE COLLEGE  MOSUNNY   79  57  47 W8        29.90F
WILLIAMSPORT   PTSUNNY   82  56  40 W8        29.84F
SELINSGROVE    MOSUNNY   85  58  39 W9        29.85F
FT INDIANTOWN  MOSUNNY   83  57  40 W9        29.85F
CAPITAL CITY   MOSUNNY   87  51  28 W9        29.84F
HARRISBURG     MOSUNNY   88  54  31 W13G18    29.84F
YORK           CLOUDY    82  60  47 SW6       29.86F
$$

PAZ038>040-043-044-047-048-054-055-060>062-067>071-012000-
EASTERN PENNSYLVANIA

CITY           SKY/WX    TMP DP  RH WIND       PRES   REMARKS
SCRANTON       PTSUNNY   81  56  42 NW10      29.85S
MOUNT POCONO   CLOUDY    68  60  75 NW6       29.90S
ALLENTOWN      SUNNY     85  56  37 W14G23    29.82F
QUAKERTOWN*    CLEAR     84  55  37 W8G16     29.84F
READING        MOSUNNY   87  56  34 W9        29.83F
LANCASTER      MOSUNNY   85  56  37 W14       29.84F
COATESVILLE    CLEAR     82  57  42 W12G17    29.87F
POTTSTOWN      SUNNY     84  57  39 W8G17     29.85F
BLUE BELL      SUNNY     86  61  42 W8G17     29.82F
DOYLESTOWN     SUNNY     86  49  27 SW8G20    29.82F
WILLOW GROVE   NOT AVBL
NORTH PHILA    PTSUNNY   88  54  31 W15G24    29.83F
PHILADELPHIA   PTSUNNY   87  57  35 W16       29.83F
$$



USA.gov is the U.S. government's official web portal to all federal, state and local government web resources and services.